{"data":{"norad_id":41175,"epoch":"2026-09-15T14:14:47.600736Z","epoch_age_seconds":438357,"freshness":"STALE","line1":"1 41175U 15079B   26258.59360649  .00000004  00000+0  00000+0 0  9997","line2":"2 41175  55.8828  98.7769 0003251  27.6372 332.4529  1.70473800 66730","mean_motion":1.704738,"eccentricity":0.0003251,"inclination_deg":55.8828,"raan_deg":98.7769,"arg_perigee_deg":27.6372,"mean_anomaly_deg":332.4529,"bstar":0,"rev_number":6673,"period_min":844.7045821704,"perigee_km":23212.583137396,"apogee_km":23231.829280551,"semimajor_km":29600.343208973,"source":"CELESTRAK","updated_at":"2026-09-20T09:00:46.493837Z"}}